Time,TemperatureF,DewpointF,PressureIn,WindDirection,WindDirectionDegrees,WindSpeedMPH,WindSpeedGustMPH,Humidity,HourlyPrecipIn,Conditions,Clouds,dailyrainin,SoftwareType,DateUTC
2013-01-27 00:04:00,48.2,41.4,30.08,NW,308,0.0,6.0,77,0.00,,,0.00,meteohub,2013-01-27 08:04:00,
2013-01-27 00:09:00,48.0,41.2,30.08,North,354,1.0,5.0,77,0.00,,,0.00,meteohub,2013-01-27 08:09:00,
2013-01-27 00:14:00,47.8,41.4,30.07,NNW,334,1.0,5.0,78,0.00,,,0.00,meteohub,2013-01-27 08:14:00,
2013-01-27 00:19:00,47.8,41.4,30.07,North,11,3.0,5.0,78,0.00,,,0.00,meteohub,2013-01-27 08:19:00,
2013-01-27 00:24:00,47.8,41.7,30.07,NNW,347,2.0,6.0,79,0.00,,,0.00,meteohub,2013-01-27 08:24:00,
2013-01-27 00:29:00,47.7,41.5,30.07,NNW,346,3.0,7.0,79,0.00,,,0.00,meteohub,2013-01-27 08:29:00,
2013-01-27 00:34:00,47.7,41.2,30.07,NNW,346,2.0,7.0,78,0.00,,,0.00,meteohub,2013-01-27 08:34:00,
2013-01-27 00:40:00,47.7,41.2,30.07,NNW,341,4.0,7.0,78,0.00,,,0.00,meteohub,2013-01-27 08:40:00,
2013-01-27 00:45:00,47.7,41.2,30.07,North,352,2.0,6.0,78,0.00,,,0.00,meteohub,2013-01-27 08:45:00,
2013-01-27 00:50:00,47.7,40.8,30.07,NNW,342,2.0,6.0,77,0.00,,,0.00,meteohub,2013-01-27 08:50:00,
2013-01-27 00:55:00,47.7,40.5,30.07,NNE,16,2.0,7.0,76,0.00,,,0.00,meteohub,2013-01-27 08:55:00,
2013-01-27 01:00:00,47.7,40.1,30.07,North,1,4.0,7.0,75,0.00,,,0.00,meteohub,2013-01-27 09:00:00,
2013-01-27 01:05:00,47.7,39.7,30.07,NW,309,2.0,7.0,74,0.00,,,0.00,meteohub,2013-01-27 09:05:00,
2013-01-27 01:10:00,47.7,39.7,30.07,NNW,345,2.0,7.0,74,0.00,,,0.00,meteohub,2013-01-27 09:10:00,
2013-01-27 01:15:00,47.7,40.1,30.07,NNW,342,4.0,6.0,75,0.00,,,0.00,meteohub,2013-01-27 09:15:00,
2013-01-27 01:20:00,47.7,40.1,30.07,NW,322,2.0,8.0,75,0.00,,,0.00,meteohub,2013-01-27 09:20:00,
2013-01-27 01:25:00,47.8,40.3,30.07,NNW,330,3.0,8.0,75,0.00,,,0.00,meteohub,2013-01-27 09:25:00,
2013-01-27 01:30:00,47.8,40.3,30.07,NNW,347,2.0,8.0,75,0.00,,,0.00,meteohub,2013-01-27 09:30:00,
2013-01-27 01:36:00,47.8,40.3,30.07,NNW,335,3.0,9.0,75,0.00,,,0.00,meteohub,2013-01-27 09:36:00,
2013-01-27 01:41:00,47.8,40.3,30.07,North,353,3.0,13.0,75,0.00,,,0.00,meteohub,2013-01-27 09:41:00,
2013-01-27 01:46:00,47.8,40.6,30.08,NNW,345,4.0,13.0,76,0.00,,,0.00,meteohub,2013-01-27 09:46:00,
2013-01-27 01:51:00,47.7,40.8,30.08,NNW,342,1.0,13.0,77,0.00,,,0.00,meteohub,2013-01-27 09:51:00,
2013-01-27 01:56:00,47.7,40.8,30.08,NNW,336,2.0,8.0,77,0.00,,,0.00,meteohub,2013-01-27 09:56:00,
2013-01-27 02:01:00,47.7,40.8,30.08,NNW,348,5.0,8.0,77,0.00,,,0.00,meteohub,2013-01-27 10:01:00,
2013-01-27 02:06:00,47.7,40.8,30.08,North,349,6.0,11.0,77,0.00,,,0.00,meteohub,2013-01-27 10:06:00,
2013-01-27 02:11:00,47.7,41.2,30.08,North,352,2.0,11.0,78,0.00,,,0.00,meteohub,2013-01-27 10:11:00,
2013-01-27 02:16:00,47.5,41.0,30.08,North,6,2.0,8.0,78,0.00,,,0.00,meteohub,2013-01-27 10:16:00,
2013-01-27 02:21:00,47.5,41.0,30.08,NNE,18,3.0,8.0,78,0.00,,,0.00,meteohub,2013-01-27 10:21:00,
2013-01-27 02:27:00,47.5,41.0,30.07,NW,324,4.0,7.0,78,0.00,,,0.00,meteohub,2013-01-27 10:27:00,
2013-01-27 02:32:00,47.3,40.8,30.07,North,11,2.0,5.0,78,0.00,,,0.00,meteohub,2013-01-27 10:32:00,
2013-01-27 02:37:00,47.3,41.2,30.07,NNW,340,4.0,6.0,79,0.00,,,0.00,meteohub,2013-01-27 10:37:00,
2013-01-27 02:42:00,47.5,41.0,30.07,North,350,4.0,6.0,78,0.00,,,0.00,meteohub,2013-01-27 10:42:00,
2013-01-27 02:47:00,47.3,40.8,30.07,NNE,18,3.0,8.0,78,0.00,,,0.00,meteohub,2013-01-27 10:47:00,
2013-01-27 02:52:00,47.3,40.5,30.07,NNW,342,4.0,8.0,77,0.00,,,0.00,meteohub,2013-01-27 10:52:00,
2013-01-27 02:57:00,47.3,40.5,30.07,North,352,4.0,8.0,77,0.00,,,0.00,meteohub,2013-01-27 10:57:00,
2013-01-27 03:02:00,47.3,40.5,30.07,NNE,13,1.0,7.0,77,0.00,,,0.00,meteohub,2013-01-27 11:02:00,
2013-01-27 03:07:00,47.3,40.5,30.07,NW,323,3.0,7.0,77,0.00,,,0.00,meteohub,2013-01-27 11:07:00,
2013-01-27 03:12:00,47.3,40.1,30.07,NNE,12,4.0,7.0,76,0.00,,,0.00,meteohub,2013-01-27 11:12:00,
2013-01-27 03:17:00,47.3,40.1,30.07,NNW,347,5.0,7.0,76,0.00,,,0.00,meteohub,2013-01-27 11:17:00,
2013-01-27 03:22:00,47.1,39.9,30.07,NW,326,3.0,7.0,76,0.00,,,0.00,meteohub,2013-01-27 11:22:00,
2013-01-27 03:27:00,47.1,39.9,30.08,North,6,5.0,7.0,76,0.00,,,0.00,meteohub,2013-01-27 11:27:00,
2013-01-27 03:32:00,47.1,39.9,30.08,NNW,348,1.0,9.0,76,0.00,,,0.00,meteohub,2013-01-27 11:32:00,
2013-01-27 03:37:00,47.1,39.9,30.08,North,356,2.0,9.0,76,0.00,,,0.00,meteohub,2013-01-27 11:37:00,
2013-01-27 03:42:00,47.1,39.9,30.08,North,356,6.0,8.0,76,0.00,,,0.00,meteohub,2013-01-27 11:42:00,
2013-01-27 03:47:00,46.9,39.7,30.08,NNW,330,3.0,8.0,76,0.00,,,0.00,meteohub,2013-01-27 11:47:00,
2013-01-27 03:52:00,46.9,39.7,30.08,NW,324,3.0,8.0,76,0.00,,,0.00,meteohub,2013-01-27 11:52:00,
2013-01-27 03:57:00,46.9,39.4,30.08,North,6,4.0,7.0,75,0.00,,,0.00,meteohub,2013-01-27 11:57:00,
2013-01-27 04:02:00,46.9,39.0,30.07,NNW,334,2.0,10.0,74,0.00,,,0.00,meteohub,2013-01-27 12:02:00,
2013-01-27 04:07:00,46.9,39.0,30.08,North,0,3.0,10.0,74,0.00,,,0.00,meteohub,2013-01-27 12:07:00,
2013-01-27 04:12:00,46.9,39.0,30.08,NW,308,4.0,10.0,74,0.00,,,0.00,meteohub,2013-01-27 12:12:00,
2013-01-27 04:17:00,46.8,38.8,30.07,NNW,333,2.0,8.0,74,0.00,,,0.00,meteohub,2013-01-27 12:17:00,
2013-01-27 04:22:00,46.9,39.0,30.07,North,9,4.0,8.0,74,0.00,,,0.00,meteohub,2013-01-27 12:22:00,
2013-01-27 04:27:00,46.8,38.8,30.07,NW,323,4.0,8.0,74,0.00,,,0.00,meteohub,2013-01-27 12:27:00,
2013-01-27 04:32:00,46.8,38.5,30.07,North,350,3.0,8.0,73,0.00,,,0.00,meteohub,2013-01-27 12:32:00,
2013-01-27 04:37:00,46.8,38.5,30.07,WNW,295,2.0,8.0,73,0.00,,,0.00,meteohub,2013-01-27 12:37:00,
2013-01-27 04:42:00,46.8,38.5,30.07,NW,323,1.0,8.0,73,0.00,,,0.00,meteohub,2013-01-27 12:42:00,
2013-01-27 04:47:00,46.6,38.7,30.07,NNW,345,2.0,8.0,74,0.00,,,0.00,meteohub,2013-01-27 12:47:00,
2013-01-27 04:52:00,46.2,38.5,30.07,North,6,1.0,7.0,74,0.00,,,0.00,meteohub,2013-01-27 12:52:00,
2013-01-27 04:57:00,46.2,38.5,30.07,NNE,12,1.0,7.0,74,0.00,,,0.00,meteohub,2013-01-27 12:57:00,
2013-01-27 05:02:00,46.0,38.3,30.07,NW,304,2.0,4.0,74,0.00,,,0.00,meteohub,2013-01-27 13:02:00,
2013-01-27 05:07:00,46.0,38.3,30.07,North,359,0.0,4.0,74,0.00,,,0.00,meteohub,2013-01-27 13:07:00,
2013-01-27 05:12:00,45.9,38.1,30.07,NNE,15,0.0,4.0,74,0.00,,,0.00,meteohub,2013-01-27 13:12:00,
2013-01-27 05:17:00,45.7,37.9,30.07,North,352,1.0,4.0,74,0.00,,,0.00,meteohub,2013-01-27 13:17:00,
2013-01-27 05:22:00,45.5,38.1,30.07,North,1,3.0,3.0,75,0.00,,,0.00,meteohub,2013-01-27 13:22:00,
2013-01-27 05:27:00,45.3,37.9,30.07,NNW,340,0.0,4.0,75,0.00,,,0.00,meteohub,2013-01-27 13:27:00,
2013-01-27 05:32:00,45.1,37.8,30.07,NNE,13,0.0,4.0,75,0.00,,,0.00,meteohub,2013-01-27 13:32:00,
2013-01-27 05:37:00,45.0,37.9,30.07,SW,219,1.0,4.0,76,0.00,,,0.00,meteohub,2013-01-27 13:37:00,
2013-01-27 05:42:00,45.1,37.9,30.08,NNW,335,2.0,3.0,76,0.00,,,0.00,meteohub,2013-01-27 13:42:00,
2013-01-27 05:47:00,45.1,37.9,30.08,NNE,16,0.0,4.0,76,0.00,,,0.00,meteohub,2013-01-27 13:47:00,
2013-01-27 05:52:00,45.0,37.9,30.08,NE,45,0.0,4.0,76,0.00,,,0.00,meteohub,2013-01-27 13:52:00,
2013-01-27 05:57:00,44.8,37.8,30.08,North,352,1.0,2.0,76,0.00,,,0.00,meteohub,2013-01-27 13:57:00,
2013-01-27 06:02:00,44.8,37.8,30.08,North,352,0.0,2.0,76,0.00,,,0.00,meteohub,2013-01-27 14:02:00,
2013-01-27 06:07:00,44.4,37.6,30.09,North,352,0.0,1.0,77,0.00,,,0.00,meteohub,2013-01-27 14:07:00,
2013-01-27 06:12:00,44.1,37.6,30.09,SW,232,0.0,1.0,78,0.00,,,0.00,meteohub,2013-01-27 14:12:00,
2013-01-27 06:17:00,43.9,37.4,30.09,NW,318,1.0,1.0,78,0.00,,,0.00,meteohub,2013-01-27 14:17:00,
2013-01-27 06:22:00,43.7,37.2,30.09,NNW,330,1.0,1.0,78,0.00,,,0.00,meteohub,2013-01-27 14:22:00,
2013-01-27 06:27:00,43.3,37.2,30.09,NNW,335,1.0,1.0,79,0.00,,,0.00,meteohub,2013-01-27 14:27:00,
2013-01-27 06:32:00,43.2,37.0,30.09,NNW,334,0.0,1.0,79,0.00,,,0.00,meteohub,2013-01-27 14:32:00,
2013-01-27 06:37:00,42.6,37.2,30.09,NNW,332,0.0,1.0,81,0.00,,,0.00,meteohub,2013-01-27 14:37:00,
2013-01-27 06:42:00,42.4,37.0,30.10,SE,134,0.0,1.0,81,0.00,,,0.00,meteohub,2013-01-27 14:42:00,
2013-01-27 06:47:00,42.4,36.3,30.10,NNE,26,2.0,2.0,79,0.00,,,0.00,meteohub,2013-01-27 14:47:00,
2013-01-27 06:52:00,43.7,37.0,30.10,NNE,16,2.0,3.0,77,0.00,,,0.00,meteohub,2013-01-27 14:52:00,
2013-01-27 06:57:00,44.4,37.4,30.10,East,89,1.0,5.0,76,0.00,,,0.00,meteohub,2013-01-27 14:57:00,
2013-01-27 07:02:00,44.8,37.8,30.10,NW,307,0.0,5.0,76,0.00,,,0.00,meteohub,2013-01-27 15:02:00,
2013-01-27 07:07:00,45.0,37.2,30.10,NNE,15,1.0,6.0,74,0.00,,,0.00,meteohub,2013-01-27 15:07:00,
2013-01-27 07:12:00,45.0,37.6,30.11,NNW,344,1.0,6.0,75,0.00,,,0.00,meteohub,2013-01-27 15:12:00,
2013-01-27 07:17:00,44.8,37.0,30.11,NNW,340,1.0,6.0,74,0.00,,,0.00,meteohub,2013-01-27 15:17:00,
2013-01-27 07:22:00,44.8,37.4,30.11,North,354,1.0,3.0,75,0.00,,,0.00,meteohub,2013-01-27 15:22:00,
2013-01-27 07:27:00,44.6,37.2,30.12,WNW,287,0.0,3.0,75,0.00,,,0.00,meteohub,2013-01-27 15:27:00,
2013-01-27 07:32:00,44.8,37.4,30.12,North,9,2.0,2.0,75,0.00,,,0.00,meteohub,2013-01-27 15:32:00,
2013-01-27 07:37:00,45.1,37.0,30.12,NNE,30,1.0,6.0,73,0.00,,,0.00,meteohub,2013-01-27 15:37:00,
2013-01-27 07:42:00,45.1,37.0,30.12,North,356,1.0,6.0,73,0.00,,,0.00,meteohub,2013-01-27 15:42:00,
2013-01-27 07:47:00,45.0,37.2,30.12,North,9,1.0,6.0,74,0.00,,,0.00,meteohub,2013-01-27 15:47:00,
2013-01-27 07:52:00,45.0,36.5,30.12,North,359,0.0,4.0,72,0.00,,,0.00,meteohub,2013-01-27 15:52:00,
2013-01-27 07:57:00,45.0,36.9,30.12,NE,44,0.0,3.0,73,0.00,,,0.00,meteohub,2013-01-27 15:57:00,
2013-01-27 08:02:00,45.1,36.7,30.13,NNE,15,1.0,3.0,72,0.00,,,0.00,meteohub,2013-01-27 16:02:00,
2013-01-27 08:07:00,45.1,36.7,30.13,NW,321,1.0,3.0,72,0.00,,,0.00,meteohub,2013-01-27 16:07:00,
2013-01-27 08:12:00,45.0,36.9,30.13,NW,323,1.0,3.0,73,0.00,,,0.00,meteohub,2013-01-27 16:12:00,
2013-01-27 08:17:00,45.0,37.2,30.13,NW,321,0.0,3.0,74,0.00,,,0.00,meteohub,2013-01-27 16:17:00,
2013-01-27 08:22:00,45.0,37.2,30.14,North,354,0.0,1.0,74,0.00,,,0.00,meteohub,2013-01-27 16:22:00,
2013-01-27 08:27:00,45.0,37.2,30.14,North,352,1.0,1.0,74,0.00,,,0.00,meteohub,2013-01-27 16:27:00,
2013-01-27 08:32:00,45.3,37.6,30.14,North,352,0.0,1.0,74,0.00,,,0.00,meteohub,2013-01-27 16:32:00,
2013-01-27 08:37:00,45.9,37.0,30.14,North,352,0.0,1.0,71,0.00,,,0.00,meteohub,2013-01-27 16:37:00,
2013-01-27 08:42:00,46.4,36.9,30.14,North,352,0.0,1.0,69,0.00,,,0.00,meteohub,2013-01-27 16:42:00,
2013-01-27 08:47:00,46.9,37.2,30.14,North,352,0.0,1.0,69,0.00,,,0.00,meteohub,2013-01-27 16:47:00,
2013-01-27 08:52:00,47.5,37.8,30.14,North,352,0.0,1.0,69,0.00,,,0.00,meteohub,2013-01-27 16:52:00,
2013-01-27 08:57:00,47.8,37.0,30.14,North,352,0.0,1.0,66,0.00,,,0.00,meteohub,2013-01-27 16:57:00,
2013-01-27 09:02:00,48.0,37.6,30.14,North,352,0.0,1.0,67,0.00,,,0.00,meteohub,2013-01-27 17:02:00,
2013-01-27 09:07:00,48.0,37.2,30.14,NNW,339,0.0,1.0,66,0.00,,,0.00,meteohub,2013-01-27 17:07:00,
2013-01-27 09:12:00,48.7,37.6,30.14,NNW,338,0.0,1.0,65,0.00,,,0.00,meteohub,2013-01-27 17:12:00,
2013-01-27 09:17:00,49.3,37.6,30.14,East,91,0.0,2.0,64,0.00,,,0.00,meteohub,2013-01-27 17:17:00,
2013-01-27 09:22:00,49.3,37.2,30.14,East,90,1.0,2.0,63,0.00,,,0.00,meteohub,2013-01-27 17:22:00,
2013-01-27 09:27:00,49.6,37.6,30.14,SSE,152,1.0,3.0,63,0.00,,,0.00,meteohub,2013-01-27 17:27:00,
2013-01-27 09:32:00,49.6,37.2,30.14,ESE,116,1.0,4.0,62,0.00,,,0.00,meteohub,2013-01-27 17:32:00,
2013-01-27 09:37:00,49.8,36.9,30.14,ENE,64,1.0,4.0,61,0.00,,,0.00,meteohub,2013-01-27 17:37:00,
2013-01-27 09:42:00,50.0,37.0,30.14,NW,305,1.0,6.0,61,0.00,,,0.00,meteohub,2013-01-27 17:42:00,
2013-01-27 09:47:00,50.4,37.8,30.14,NE,34,7.0,7.0,62,0.00,,,0.00,meteohub,2013-01-27 17:47:00,
2013-01-27 09:52:00,50.5,38.5,30.14,NNE,20,2.0,7.0,63,0.00,,,0.00,meteohub,2013-01-27 17:52:00,
2013-01-27 09:57:00,50.7,38.1,30.14,NNW,342,2.0,7.0,62,0.00,,,0.00,meteohub,2013-01-27 17:57:00,
2013-01-27 10:02:00,51.1,36.9,30.15,West,273,2.0,7.0,58,0.00,,,0.00,meteohub,2013-01-27 18:02:00,
2013-01-27 10:07:00,50.7,36.9,30.15,NE,43,3.0,10.0,59,0.00,,,0.00,meteohub,2013-01-27 18:07:00,
2013-01-27 10:12:00,50.5,37.2,30.15,NW,305,4.0,11.0,60,0.00,,,0.00,meteohub,2013-01-27 18:12:00,
2013-01-27 10:17:00,50.9,37.0,30.15,ENE,60,5.0,11.0,59,0.00,,,0.00,meteohub,2013-01-27 18:17:00,
2013-01-27 10:22:00,51.1,37.2,30.16,ESE,117,1.0,11.0,59,0.00,,,0.00,meteohub,2013-01-27 18:22:00,
2013-01-27 10:27:00,51.3,37.0,30.17,NW,323,2.0,9.0,58,0.00,,,0.00,meteohub,2013-01-27 18:27:00,
2013-01-27 10:32:00,51.3,37.8,30.17,NE,37,2.0,5.0,60,0.00,,,0.00,meteohub,2013-01-27 18:32:00,
2013-01-27 10:37:00,51.3,36.5,30.17,SSE,150,1.0,4.0,57,0.00,,,0.00,meteohub,2013-01-27 18:37:00,
2013-01-27 10:42:00,51.6,37.4,30.17,North,352,1.0,4.0,58,0.00,,,0.00,meteohub,2013-01-27 18:42:00,
2013-01-27 10:47:00,52.0,37.6,30.17,East,96,1.0,5.0,58,0.00,,,0.00,meteohub,2013-01-27 18:47:00,
2013-01-27 10:52:00,52.2,37.8,30.17,SSE,155,1.0,5.0,58,0.00,,,0.00,meteohub,2013-01-27 18:52:00,
2013-01-27 10:57:00,52.3,38.5,30.17,SW,221,1.0,5.0,59,0.00,,,0.00,meteohub,2013-01-27 18:57:00,
2013-01-27 11:02:00,52.5,38.1,30.17,ENE,76,1.0,4.0,58,0.00,,,0.00,meteohub,2013-01-27 19:02:00,
2013-01-27 11:07:00,52.7,38.3,30.17,East,94,1.0,3.0,58,0.00,,,0.00,meteohub,2013-01-27 19:07:00,
2013-01-27 11:12:00,52.9,38.5,30.17,West,260,1.0,5.0,58,0.00,,,0.00,meteohub,2013-01-27 19:12:00,
2013-01-27 11:17:00,52.5,38.1,30.17,NE,41,4.0,5.0,58,0.00,,,0.00,meteohub,2013-01-27 19:17:00,
2013-01-27 11:22:00,52.3,38.5,30.17,ENE,68,3.0,8.0,59,0.00,,,0.00,meteohub,2013-01-27 19:22:00,
2013-01-27 11:27:00,52.3,37.9,30.17,East,88,2.0,8.0,58,0.00,,,0.00,meteohub,2013-01-27 19:27:00,
2013-01-27 11:32:00,52.5,38.7,30.17,East,98,1.0,8.0,59,0.00,,,0.00,meteohub,2013-01-27 19:32:00,
2013-01-27 11:37:00,52.5,39.0,30.17,SE,136,1.0,6.0,60,0.00,,,0.00,meteohub,2013-01-27 19:37:00,
2013-01-27 11:42:00,52.9,39.0,30.17,SSE,160,1.0,6.0,59,0.00,,,0.00,meteohub,2013-01-27 19:42:00,
2013-01-27 11:47:00,53.2,39.2,30.17,SE,142,2.0,6.0,59,0.00,,,0.00,meteohub,2013-01-27 19:47:00,
2013-01-27 11:52:00,53.2,38.8,30.17,ESE,122,2.0,5.0,58,0.00,,,0.00,meteohub,2013-01-27 19:52:00,
2013-01-27 11:57:00,53.2,38.5,30.16,East,92,0.0,5.0,57,0.00,,,0.00,meteohub,2013-01-27 19:57:00,
2013-01-27 12:02:00,53.2,38.8,30.16,ESE,107,1.0,5.0,58,0.00,,,0.00,meteohub,2013-01-27 20:02:00,
2013-01-27 12:07:00,53.8,38.8,30.16,NNW,335,1.0,4.0,57,0.00,,,0.00,meteohub,2013-01-27 20:07:00,
2013-01-27 12:12:00,54.1,38.8,30.16,NNE,33,0.0,4.0,56,0.00,,,0.00,meteohub,2013-01-27 20:12:00,
2013-01-27 12:17:00,54.1,39.2,30.16,North,8,1.0,5.0,57,0.00,,,0.00,meteohub,2013-01-27 20:17:00,
2013-01-27 12:22:00,54.1,38.8,30.15,ESE,115,1.0,5.0,56,0.00,,,0.00,meteohub,2013-01-27 20:22:00,
2013-01-27 12:27:00,54.1,38.8,30.15,SSW,211,0.0,5.0,56,0.00,,,0.00,meteohub,2013-01-27 20:27:00,
2013-01-27 12:32:00,54.3,38.5,30.15,North,359,0.0,5.0,55,0.00,,,0.00,meteohub,2013-01-27 20:32:00,
2013-01-27 12:37:00,54.5,38.7,30.15,ESE,111,0.0,5.0,55,0.00,,,0.00,meteohub,2013-01-27 20:37:00,
2013-01-27 12:42:00,54.9,39.4,30.15,East,98,1.0,5.0,56,0.00,,,0.00,meteohub,2013-01-27 20:42:00,
2013-01-27 12:47:00,54.9,39.0,30.15,East,84,0.0,5.0,55,0.00,,,0.00,meteohub,2013-01-27 20:47:00,
2013-01-27 12:52:00,55.2,38.8,30.14,NNW,338,4.0,5.0,54,0.00,,,0.00,meteohub,2013-01-27 20:52:00,
2013-01-27 12:57:00,54.7,38.8,30.14,NNW,338,1.0,4.0,55,0.00,,,0.00,meteohub,2013-01-27 20:57:00,
2013-01-27 13:02:00,55.0,38.7,30.14,North,354,4.0,4.0,54,0.00,,,0.00,meteohub,2013-01-27 21:02:00,
2013-01-27 13:07:00,55.6,38.7,30.14,NNW,336,5.0,5.0,53,0.00,,,0.00,meteohub,2013-01-27 21:07:00,
2013-01-27 13:12:00,55.4,38.1,30.14,North,349,6.0,6.0,52,0.00,,,0.00,meteohub,2013-01-27 21:12:00,
2013-01-27 13:17:00,55.2,38.3,30.14,NE,41,2.0,7.0,53,0.00,,,0.00,meteohub,2013-01-27 21:17:00,
2013-01-27 13:22:00,55.8,38.5,30.14,NW,314,1.0,8.0,52,0.00,,,0.00,meteohub,2013-01-27 21:22:00,
2013-01-27 13:27:00,55.9,39.9,30.13,NW,320,3.0,8.0,55,0.00,,,0.00,meteohub,2013-01-27 21:27:00,
2013-01-27 13:33:00,56.1,39.7,30.13,NNE,26,2.0,8.0,54,0.00,,,0.00,meteohub,2013-01-27 21:33:00,
2013-01-27 13:38:00,56.1,39.7,30.13,North,4,4.0,7.0,54,0.00,,,0.00,meteohub,2013-01-27 21:38:00,
2013-01-27 13:43:00,56.1,39.7,30.13,NNE,15,3.0,7.0,54,0.00,,,0.00,meteohub,2013-01-27 21:43:00,
2013-01-27 13:48:00,56.3,39.9,30.13,WNW,287,5.0,8.0,54,0.00,,,0.00,meteohub,2013-01-27 21:48:00,
2013-01-27 13:53:00,55.9,39.9,30.13,NNW,332,3.0,8.0,55,0.00,,,0.00,meteohub,2013-01-27 21:53:00,
2013-01-27 13:58:00,55.9,39.0,30.13,North,356,7.0,9.0,53,0.00,,,0.00,meteohub,2013-01-27 21:58:00,
2013-01-27 14:03:00,55.9,39.6,30.13,NNE,18,2.0,9.0,54,0.00,,,0.00,meteohub,2013-01-27 22:03:00,
2013-01-27 14:08:00,55.8,40.8,30.13,NW,316,3.0,12.0,57,0.00,,,0.00,meteohub,2013-01-27 22:08:00,
2013-01-27 14:13:00,55.9,39.6,30.13,NNE,12,3.0,12.0,54,0.00,,,0.00,meteohub,2013-01-27 22:13:00,
2013-01-27 14:18:00,55.9,41.4,30.13,NNW,348,7.0,12.0,58,0.00,,,0.00,meteohub,2013-01-27 22:18:00,
2013-01-27 14:24:00,55.9,41.4,30.13,North,353,2.0,11.0,58,0.00,,,0.00,meteohub,2013-01-27 22:24:00,
2013-01-27 14:29:00,55.8,41.2,30.13,North,359,6.0,11.0,58,0.00,,,0.00,meteohub,2013-01-27 22:29:00,
2013-01-27 14:34:00,55.8,42.1,30.13,NNW,345,4.0,11.0,60,0.00,,,0.00,meteohub,2013-01-27 22:34:00,
2013-01-27 14:39:00,55.8,40.8,30.13,NNW,348,2.0,9.0,57,0.00,,,0.00,meteohub,2013-01-27 22:39:00,
2013-01-27 14:44:00,55.9,42.6,30.12,North,11,2.0,9.0,61,0.00,,,0.00,meteohub,2013-01-27 22:44:00,
2013-01-27 14:49:00,56.1,42.4,30.12,NNW,342,6.0,10.0,60,0.00,,,0.00,meteohub,2013-01-27 22:49:00,
2013-01-27 14:54:00,55.8,42.1,30.12,West,281,4.0,10.0,60,0.00,,,0.00,meteohub,2013-01-27 22:54:00,
2013-01-27 14:59:00,55.2,42.1,30.12,NW,314,2.0,10.0,61,0.00,,,0.00,meteohub,2013-01-27 22:59:00,
2013-01-27 15:04:00,55.0,42.3,30.12,NNW,345,3.0,10.0,62,0.00,,,0.00,meteohub,2013-01-27 23:04:00,
2013-01-27 15:10:00,54.7,41.9,30.12,North,11,5.0,10.0,62,0.00,,,0.00,meteohub,2013-01-27 23:10:00,
2013-01-27 15:15:00,54.3,41.5,30.12,NNE,22,7.0,13.0,62,0.00,,,0.00,meteohub,2013-01-27 23:15:00,
2013-01-27 15:20:00,54.1,41.9,30.12,WNW,293,2.0,15.0,63,0.00,,,0.00,meteohub,2013-01-27 23:20:00,
2013-01-27 15:25:00,54.3,42.4,30.12,NNW,344,6.0,15.0,64,0.00,,,0.00,meteohub,2013-01-27 23:25:00,
2013-01-27 15:30:00,54.3,42.1,30.12,North,0,4.0,15.0,63,0.00,,,0.00,meteohub,2013-01-27 23:30:00,
2013-01-27 15:35:00,54.0,42.4,30.12,NNW,347,5.0,13.0,65,0.00,,,0.00,meteohub,2013-01-27 23:35:00,
2013-01-27 15:40:00,53.6,42.4,30.12,NNW,346,2.0,13.0,66,0.00,,,0.00,meteohub,2013-01-27 23:40:00,
2013-01-27 15:45:00,53.8,42.3,30.12,North,359,2.0,13.0,65,0.00,,,0.00,meteohub,2013-01-27 23:45:00,
2013-01-27 15:50:00,53.6,41.7,30.12,North,349,6.0,10.0,64,0.00,,,0.00,meteohub,2013-01-27 23:50:00,
2013-01-27 15:55:00,53.4,42.3,30.12,NE,44,2.0,12.0,66,0.00,,,0.00,meteohub,2013-01-27 23:55:00,
2013-01-27 16:00:00,53.4,42.3,30.12,ENE,65,1.0,12.0,66,0.00,,,0.00,meteohub,2013-01-28 00:00:00,
2013-01-27 16:06:00,53.2,42.3,30.11,North,1,6.0,12.0,66,0.00,,,0.00,meteohub,2013-01-28 00:06:00,
2013-01-27 16:11:00,53.1,42.4,30.11,North,356,3.0,10.0,67,0.00,,,0.00,meteohub,2013-01-28 00:11:00,
2013-01-27 16:16:00,53.1,42.4,30.11,NNW,342,4.0,10.0,67,0.00,,,0.00,meteohub,2013-01-28 00:16:00,
2013-01-27 16:21:00,52.9,41.9,30.11,NNW,332,3.0,9.0,66,0.00,,,0.00,meteohub,2013-01-28 00:21:00,
2013-01-27 16:26:00,52.9,42.3,30.11,North,9,3.0,7.0,67,0.00,,,0.00,meteohub,2013-01-28 00:26:00,
2013-01-27 16:31:00,52.7,41.7,30.11,NW,316,5.0,7.0,66,0.00,,,0.00,meteohub,2013-01-28 00:31:00,
2013-01-27 16:36:00,52.5,41.5,30.12,NW,312,3.0,7.0,66,0.00,,,0.00,meteohub,2013-01-28 00:36:00,
2013-01-27 16:41:00,52.3,41.7,30.11,North,354,3.0,7.0,67,0.00,,,0.00,meteohub,2013-01-28 00:41:00,
2013-01-27 16:46:00,52.2,41.9,30.12,NW,309,3.0,7.0,68,0.00,,,0.00,meteohub,2013-01-28 00:46:00,
2013-01-27 16:51:00,52.2,41.9,30.11,North,349,4.0,7.0,68,0.00,,,0.00,meteohub,2013-01-28 00:51:00,
2013-01-27 16:57:00,52.0,41.7,30.11,NNW,347,6.0,9.0,68,0.00,,,0.00,meteohub,2013-01-28 00:57:00,
2013-01-27 17:02:00,51.8,41.2,30.11,NW,324,2.0,9.0,67,0.00,,,0.00,meteohub,2013-01-28 01:02:00,
2013-01-27 17:07:00,51.6,40.6,30.12,North,8,3.0,9.0,66,0.00,,,0.00,meteohub,2013-01-28 01:07:00,
2013-01-27 17:12:00,51.6,40.3,30.12,NNW,344,3.0,8.0,65,0.00,,,0.00,meteohub,2013-01-28 01:12:00,
2013-01-27 17:17:00,51.4,40.1,30.12,NNW,338,3.0,8.0,65,0.00,,,0.00,meteohub,2013-01-28 01:17:00,
2013-01-27 17:22:00,51.4,40.5,30.12,North,358,4.0,8.0,66,0.00,,,0.00,meteohub,2013-01-28 01:22:00,
2013-01-27 17:27:00,51.3,40.3,30.12,NW,321,2.0,7.0,66,0.00,,,0.00,meteohub,2013-01-28 01:27:00,
2013-01-27 17:32:00,51.1,40.1,30.12,NNE,13,1.0,9.0,66,0.00,,,0.00,meteohub,2013-01-28 01:32:00,
2013-01-27 17:37:00,50.9,40.3,30.12,NNE,22,1.0,9.0,67,0.00,,,0.00,meteohub,2013-01-28 01:37:00,
2013-01-27 17:42:00,50.7,40.1,30.12,NW,312,4.0,9.0,67,0.00,,,0.00,meteohub,2013-01-28 01:42:00,
2013-01-27 17:47:00,50.5,39.9,30.12,NNW,328,2.0,4.0,67,0.00,,,0.00,meteohub,2013-01-28 01:47:00,
2013-01-27 17:52:00,50.4,39.7,30.12,North,8,2.0,8.0,67,0.00,,,0.00,meteohub,2013-01-28 01:52:00,
2013-01-27 17:57:00,50.4,40.3,30.12,NNW,344,1.0,8.0,68,0.00,,,0.00,meteohub,2013-01-28 01:57:00,
2013-01-27 18:02:00,50.2,40.1,30.12,NW,312,3.0,8.0,68,0.00,,,0.00,meteohub,2013-01-28 02:02:00,
2013-01-27 18:07:00,50.0,39.9,30.12,NNW,344,2.0,7.0,68,0.00,,,0.00,meteohub,2013-01-28 02:07:00,
2013-01-27 18:12:00,49.8,40.1,30.12,North,0,3.0,7.0,69,0.00,,,0.00,meteohub,2013-01-28 02:12:00,
2013-01-27 18:17:00,49.6,39.9,30.12,NW,321,5.0,7.0,69,0.00,,,0.00,meteohub,2013-01-28 02:17:00,
2013-01-27 18:22:00,49.6,40.3,30.13,NW,315,3.0,7.0,70,0.00,,,0.00,meteohub,2013-01-28 02:22:00,
2013-01-27 18:27:00,49.5,40.1,30.13,NNW,333,3.0,8.0,70,0.00,,,0.00,meteohub,2013-01-28 02:27:00,
2013-01-27 18:32:00,49.3,40.3,30.13,NW,305,2.0,8.0,71,0.00,,,0.00,meteohub,2013-01-28 02:32:00,
2013-01-27 18:37:00,49.3,40.6,30.13,North,352,3.0,8.0,72,0.00,,,0.00,meteohub,2013-01-28 02:37:00,
2013-01-27 18:42:00,49.1,40.5,30.13,North,356,5.0,8.0,72,0.00,,,0.00,meteohub,2013-01-28 02:42:00,
2013-01-27 18:47:00,49.1,40.8,30.13,NNW,340,5.0,9.0,73,0.00,,,0.00,meteohub,2013-01-28 02:47:00,
2013-01-27 18:52:00,48.9,40.6,30.13,NNE,13,5.0,9.0,73,0.00,,,0.00,meteohub,2013-01-28 02:52:00,
2013-01-27 18:57:00,48.9,40.6,30.13,North,350,4.0,9.0,73,0.00,,,0.00,meteohub,2013-01-28 02:57:00,
2013-01-27 19:02:00,48.9,41.0,30.13,NNW,338,6.0,9.0,74,0.00,,,0.00,meteohub,2013-01-28 03:02:00,
2013-01-27 19:07:00,48.7,40.8,30.13,NNW,340,3.0,7.0,74,0.00,,,0.00,meteohub,2013-01-28 03:07:00,
2013-01-27 19:12:00,48.7,40.8,30.13,WNW,297,3.0,7.0,74,0.00,,,0.00,meteohub,2013-01-28 03:12:00,
2013-01-27 19:17:00,48.7,40.8,30.13,North,9,2.0,7.0,74,0.00,,,0.00,meteohub,2013-01-28 03:17:00,
2013-01-27 19:22:00,48.6,40.6,30.13,NNW,338,2.0,7.0,74,0.00,,,0.00,meteohub,2013-01-28 03:22:00,
2013-01-27 19:27:00,48.6,40.6,30.13,North,350,2.0,5.0,74,0.00,,,0.00,meteohub,2013-01-28 03:27:00,
2013-01-27 19:32:00,48.4,40.5,30.13,North,5,2.0,6.0,74,0.00,,,0.00,meteohub,2013-01-28 03:32:00,
2013-01-27 19:37:00,48.4,40.5,30.13,North,0,2.0,6.0,74,0.00,,,0.00,meteohub,2013-01-28 03:37:00,
2013-01-27 19:42:00,48.4,40.8,30.14,WNW,293,3.0,6.0,75,0.00,,,0.00,meteohub,2013-01-28 03:42:00,
2013-01-27 19:47:00,48.4,40.8,30.14,NNW,335,1.0,6.0,75,0.00,,,0.00,meteohub,2013-01-28 03:47:00,
2013-01-27 19:52:00,48.4,40.8,30.14,NW,326,1.0,6.0,75,0.00,,,0.00,meteohub,2013-01-28 03:52:00,
2013-01-27 19:57:00,48.0,40.1,30.14,NW,326,0.0,6.0,74,0.00,,,0.00,meteohub,2013-01-28 03:57:00,
2013-01-27 20:02:00,47.8,39.9,30.14,NNW,338,2.0,3.0,74,0.00,,,0.00,meteohub,2013-01-28 04:02:00,
2013-01-27 20:07:00,47.8,39.6,30.14,WSW,258,1.0,2.0,73,0.00,,,0.00,meteohub,2013-01-28 04:07:00,
2013-01-27 20:12:00,47.7,39.7,30.14,NW,321,0.0,2.0,74,0.00,,,0.00,meteohub,2013-01-28 04:12:00,
2013-01-27 20:17:00,47.5,39.6,30.14,SSE,147,0.0,2.0,74,0.00,,,0.00,meteohub,2013-01-28 04:17:00,
2013-01-27 20:22:00,47.5,39.9,30.14,SW,235,0.0,2.0,75,0.00,,,0.00,meteohub,2013-01-28 04:22:00,
2013-01-27 20:27:00,47.3,39.7,30.14,West,276,1.0,2.0,75,0.00,,,0.00,meteohub,2013-01-28 04:27:00,
2013-01-27 20:32:00,47.3,39.7,30.14,SE,136,0.0,3.0,75,0.00,,,0.00,meteohub,2013-01-28 04:32:00,
2013-01-27 20:37:00,47.3,40.1,30.14,SSW,205,1.0,3.0,76,0.00,,,0.00,meteohub,2013-01-28 04:37:00,
2013-01-27 20:42:00,47.3,39.7,30.14,WNW,295,0.0,3.0,75,0.00,,,0.00,meteohub,2013-01-28 04:42:00,
2013-01-27 20:47:00,47.1,39.6,30.14,SW,233,0.0,2.0,75,0.00,,,0.00,meteohub,2013-01-28 04:47:00,
2013-01-27 20:52:00,47.1,39.6,30.14,South,188,0.0,1.0,75,0.00,,,0.00,meteohub,2013-01-28 04:52:00,
2013-01-27 20:57:00,46.9,39.4,30.14,South,188,0.0,1.0,75,0.00,,,0.00,meteohub,2013-01-28 04:57:00,
2013-01-27 21:01:00,46.8,39.6,30.14,South,188,1.0,1.0,76,0.00,,,0.00,meteohub,2013-01-28 05:01:00,
2013-01-27 21:04:00,46.8,39.2,30.14,South,184,0.0,1.0,75,0.00,,,0.00,meteohub,2013-01-28 05:04:00,
2013-01-27 21:06:00,46.8,39.2,30.14,South,184,0.0,2.0,75,0.00,,,0.00,meteohub,2013-01-28 05:06:00,
2013-01-27 21:12:00,46.9,38.3,30.14,NNW,338,3.0,3.0,72,0.00,,,0.00,meteohub,2013-01-28 05:12:00,
2013-01-27 21:17:00,47.7,37.2,30.14,North,356,3.0,4.0,67,0.00,,,0.00,meteohub,2013-01-28 05:17:00,
2013-01-27 21:22:00,48.2,37.0,30.14,NE,40,0.0,6.0,65,0.00,,,0.00,meteohub,2013-01-28 05:22:00,
2013-01-27 21:27:00,48.4,37.9,30.14,North,5,0.0,6.0,67,0.00,,,0.00,meteohub,2013-01-28 05:27:00,
2013-01-27 21:32:00,48.0,37.6,30.14,North,6,1.0,6.0,67,0.00,,,0.00,meteohub,2013-01-28 05:32:00,
2013-01-27 21:37:00,48.4,38.3,30.14,North,352,0.0,2.0,68,0.00,,,0.00,meteohub,2013-01-28 05:37:00,
2013-01-27 21:42:00,48.0,37.9,30.14,SW,226,1.0,3.0,68,0.00,,,0.00,meteohub,2013-01-28 05:42:00,
2013-01-27 21:47:00,48.4,37.2,30.14,NNW,342,2.0,3.0,65,0.00,,,0.00,meteohub,2013-01-28 05:47:00,
2013-01-27 21:52:00,48.6,37.4,30.14,NNW,338,2.0,5.0,65,0.00,,,0.00,meteohub,2013-01-28 05:52:00,
2013-01-27 21:58:00,48.4,38.3,30.14,WNW,294,1.0,5.0,68,0.00,,,0.00,meteohub,2013-01-28 05:58:00,
2013-01-27 22:03:00,47.5,38.8,30.14,SW,218,1.0,5.0,72,0.00,,,0.00,meteohub,2013-01-28 06:03:00,
2013-01-27 22:08:00,46.9,38.7,30.14,SSW,198,1.0,3.0,73,0.00,,,0.00,meteohub,2013-01-28 06:08:00,
2013-01-27 22:13:00,46.6,38.5,30.14,NNE,20,0.0,3.0,73,0.00,,,0.00,meteohub,2013-01-28 06:13:00,
2013-01-27 22:18:00,46.2,38.7,30.14,South,188,0.0,3.0,75,0.00,,,0.00,meteohub,2013-01-28 06:18:00,
2013-01-27 22:23:00,46.0,38.5,30.14,NNE,29,0.0,3.0,75,0.00,,,0.00,meteohub,2013-01-28 06:23:00,
2013-01-27 22:29:00,46.0,38.5,30.14,NW,322,1.0,3.0,75,0.00,,,0.00,meteohub,2013-01-28 06:29:00,
2013-01-27 22:34:00,46.2,38.7,30.14,NW,304,0.0,3.0,75,0.00,,,0.00,meteohub,2013-01-28 06:34:00,
2013-01-27 22:39:00,46.4,38.5,30.14,NW,307,1.0,2.0,74,0.00,,,0.00,meteohub,2013-01-28 06:39:00,
2013-01-27 22:44:00,46.4,38.5,30.15,NNE,20,1.0,2.0,74,0.00,,,0.00,meteohub,2013-01-28 06:44:00,
2013-01-27 22:49:00,46.2,38.5,30.15,NNW,340,1.0,3.0,74,0.00,,,0.00,meteohub,2013-01-28 06:49:00,
2013-01-27 22:54:00,46.4,38.5,30.15,NW,316,1.0,3.0,74,0.00,,,0.00,meteohub,2013-01-28 06:54:00,
2013-01-27 22:59:00,46.6,38.7,30.15,NE,55,0.0,3.0,74,0.00,,,0.00,meteohub,2013-01-28 06:59:00,
2013-01-27 23:05:00,46.6,38.5,30.15,NNW,347,3.0,3.0,73,0.00,,,0.00,meteohub,2013-01-28 07:05:00,
2013-01-27 23:10:00,46.8,38.8,30.15,NNE,18,3.0,4.0,74,0.00,,,0.00,meteohub,2013-01-28 07:10:00,
2013-01-27 23:15:00,46.8,38.8,30.15,NW,319,0.0,5.0,74,0.00,,,0.00,meteohub,2013-01-28 07:15:00,
2013-01-27 23:20:00,46.8,38.8,30.16,NNW,338,2.0,5.0,74,0.00,,,0.00,meteohub,2013-01-28 07:20:00,
2013-01-27 23:25:00,46.8,38.8,30.16,North,1,2.0,5.0,74,0.00,,,0.00,meteohub,2013-01-28 07:25:00,
2013-01-27 23:30:00,46.6,38.7,30.16,North,5,0.0,4.0,74,0.00,,,0.00,meteohub,2013-01-28 07:30:00,
2013-01-27 23:35:00,46.4,38.8,30.16,NNW,334,0.0,4.0,75,0.00,,,0.00,meteohub,2013-01-28 07:35:00,
2013-01-27 23:40:00,46.2,38.7,30.16,NNW,335,1.0,4.0,75,0.00,,,0.00,meteohub,2013-01-28 07:40:00,
2013-01-27 23:45:00,46.2,38.7,30.16,NNW,348,2.0,3.0,75,0.00,,,0.00,meteohub,2013-01-28 07:45:00,
2013-01-27 23:50:00,46.2,38.7,30.16,ESE,105,0.0,3.0,75,0.00,,,0.00,meteohub,2013-01-28 07:50:00,
2013-01-27 23:56:00,45.9,38.3,30.16,NNE,15,1.0,3.0,75,0.00,,,0.00,meteohub,2013-01-28 07:56:00,